GORIZONT 15 [-]

Last updated on Feb. 24, 2021, 6:34 a.m. UTC

1 19017U 88028A   21054.37391917 -.00000166  00000-0  00000-0 0  9990
2 19017  15.0373 345.8081 0033465 138.8521 137.4850  0.97829890100525
UTC
Height (km)
Latitude
Longitude
Inclination
Orbital Period
UTC large
Height (km)
Speed (km/s)
/
Latitude / Longitude
Inclination (degrees)
Orbital Period (minutes)
Azimuth
Elevation
Range (km)
Doppler Factor
iOS Compass Heading
iOS Angle

Next 30 passes for location: Hong Kong

Rise time Rise Azimuth (degrees) Set time Set Azimuth (degrees) Duration Max altitude (degrees)

No matching passes for this satellites